TimeCEST,TemperatureF,Dew PointF,Humidity,Sea Level PressureIn,VisibilityMPH,Wind Direction,Wind SpeedMPH,Gust SpeedMPH,PrecipitationIn,Events,Conditions,WindDirDegrees,DateUTC
12:25 AM,55.4,48.2,77,29.98,-9999.0,West,8.1,-,N/A,,Clear,260,2013-04-25 22:25:00
12:55 AM,53.6,46.4,77,29.98,-9999.0,West,9.2,-,N/A,,Clear,280,2013-04-25 22:55:00
1:25 AM,51.8,44.6,76,29.98,-9999.0,SW,5.8,-,N/A,,Clear,230,2013-04-25 23:25:00
1:55 AM,50.0,44.6,82,29.95,-9999.0,SW,5.8,-,N/A,,Clear,220,2013-04-25 23:55:00
2:00 AM,50,44,74,29.97,6,SW,6.7,,,,Partly Cloudy,230,2013-04-26 00:00:00
2:25 AM,50.0,44.6,82,29.95,-9999.0,SW,5.8,-,N/A,,Clear,220,2013-04-26 00:25:00
2:55 AM,50.0,44.6,82,29.95,-9999.0,SW,6.9,-,N/A,,Clear,230,2013-04-26 00:55:00
3:25 AM,50.0,44.6,82,29.92,4.3,West,8.1,-,N/A,,Unknown,260,2013-04-26 01:25:00
3:55 AM,48.2,44.6,87,29.92,3.7,WNW,8.1,-,N/A,,Partly Cloudy,300,2013-04-26 01:55:00
4:25 AM,46.4,44.6,93,29.92,2.5,NW,6.9,-,N/A,,Partly Cloudy,310,2013-04-26 02:25:00
4:55 AM,48.2,46.4,93,29.92,1.6,North,9.2,-,N/A,Fog,Patches of Fog,350,2013-04-26 02:55:00
5:00 AM,47,46,93,29.93,2,North,8.9,,,,Mist,0,2013-04-26 03:00:00
5:25 AM,48.2,48.2,100,29.92,1.4,North,5.8,-,N/A,,Overcast,10,2013-04-26 03:25:00
5:55 AM,50.0,48.2,94,29.92,1.2,North,6.9,-,N/A,,Overcast,360,2013-04-26 03:55:00
6:25 AM,48.2,48.2,100,29.92,1.7,North,9.2,-,N/A,,Overcast,360,2013-04-26 04:25:00
6:55 AM,48.2,46.4,93,29.92,1.7,North,12.7,-,N/A,,Overcast,350,2013-04-26 04:55:00
7:25 AM,48.2,46.4,93,29.89,2.8,North,10.4,-,N/A,,Scattered Clouds,10,2013-04-26 05:25:00
7:55 AM,48.2,44.6,87,29.89,6.2,North,11.5,-,N/A,,Scattered Clouds,10,2013-04-26 05:55:00
8:00 AM,48,45,84,29.91,7,North,13.4,,,Rain,Light Rain Showers,10,2013-04-26 06:00:00
8:25 AM,48.2,44.6,87,29.89,6.2,North,11.5,-,N/A,Rain,Light Rain,10,2013-04-26 06:25:00
8:55 AM,48.2,44.6,87,29.89,6.2,NNE,10.4,-,N/A,,Mostly Cloudy,20,2013-04-26 06:55:00
9:25 AM,50.0,44.6,82,29.89,6.2,North,10.4,-,N/A,,Mostly Cloudy,10,2013-04-26 07:25:00
9:55 AM,48.2,44.6,87,29.89,6.2,NNE,11.5,-,N/A,Rain,Light Rain,20,2013-04-26 07:55:00
10:25 AM,48.2,46.4,93,29.89,6.2,North,8.1,-,N/A,Rain,Light Rain,10,2013-04-26 08:25:00
10:55 AM,48.2,46.4,93,29.89,6.2,North,10.4,-,N/A,Rain,Light Rain,350,2013-04-26 08:55:00
11:00 AM,47,45,90,29.90,11,North,11.2,,,Rain,Light Rain,350,2013-04-26 09:00:00
11:25 AM,46.4,44.6,93,29.89,6.2,North,11.5,-,N/A,Rain,Light Rain,350,2013-04-26 09:25:00
11:55 AM,46.4,42.8,87,29.89,6.2,North,12.7,-,N/A,Rain,Light Rain,360,2013-04-26 09:55:00
12:25 PM,44.6,42.8,93,29.89,6.2,NNW,13.8,-,N/A,Rain,Light Rain,340,2013-04-26 10:25:00
12:55 PM,46.4,42.8,87,29.89,6.2,North,11.5,-,N/A,Rain,Light Rain,360,2013-04-26 10:55:00
1:25 PM,46.4,42.8,87,29.86,6.2,North,10.4,-,N/A,Rain,Light Rain,360,2013-04-26 11:25:00
1:55 PM,46.4,41.0,81,29.86,6.2,North,9.2,-,N/A,Rain,Light Rain,10,2013-04-26 11:55:00
2:00 PM,45,41,80,29.88,19,North,11.2,,,Rain,Rain,10,2013-04-26 12:00:00
2:25 PM,46.4,41.0,81,29.86,6.2,North,10.4,-,N/A,,Scattered Clouds,360,2013-04-26 12:25:00
2:55 PM,46.4,41.0,81,29.86,6.2,North,10.4,-,N/A,Rain,Light Rain,360,2013-04-26 12:55:00
3:25 PM,46.4,41.0,81,29.86,6.2,NNW,11.5,-,N/A,,Partly Cloudy,340,2013-04-26 13:25:00
3:55 PM,46.4,41.0,81,29.86,6.2,NNW,12.7,-,N/A,Rain,Light Rain,340,2013-04-26 13:55:00
4:25 PM,46.4,41.0,81,29.86,6.2,NW,12.7,-,N/A,,Partly Cloudy,320,2013-04-26 14:25:00
4:55 PM,46.4,39.2,76,29.86,6.2,NNW,15.0,-,N/A,Rain,Light Rain,330,2013-04-26 14:55:00
5:00 PM,46,40,74,29.88,22,NNW,13.4,,,Rain,Light Drizzle,330,2013-04-26 15:00:00
5:25 PM,44.6,41.0,87,29.86,6.2,NW,13.8,-,N/A,Rain,Light Rain,310,2013-04-26 15:25:00
5:55 PM,44.6,41.0,87,29.86,6.2,NW,11.5,-,N/A,Rain,Light Rain,320,2013-04-26 15:55:00
6:25 PM,44.6,41.0,87,29.83,6.2,NW,10.4,-,N/A,Rain,Light Rain,320,2013-04-26 16:25:00
6:55 PM,44.6,41.0,87,29.83,6.2,NW,11.5,-,N/A,,Scattered Clouds,310,2013-04-26 16:55:00
7:25 PM,44.6,41.0,87,29.83,6.2,NNW,13.8,-,N/A,,Scattered Clouds,330,2013-04-26 17:25:00
7:55 PM,44.6,39.2,81,29.86,6.2,NNW,10.4,-,N/A,,Scattered Clouds,340,2013-04-26 17:55:00
8:00 PM,44,39,77,29.86,19,NNW,11.2,,,Rain,Rain,330,2013-04-26 18:00:00
8:25 PM,44.6,37.4,76,29.86,6.2,NNW,11.5,-,N/A,,Partly Cloudy,340,2013-04-26 18:25:00
8:55 PM,42.8,37.4,81,29.86,6.2,NNW,10.4,-,N/A,,Partly Cloudy,330,2013-04-26 18:55:00
9:25 PM,42.8,37.4,81,29.86,6.2,NNW,9.2,-,N/A,,Partly Cloudy,330,2013-04-26 19:25:00
9:55 PM,41.0,37.4,87,29.86,6.2,NW,8.1,-,N/A,,Partly Cloudy,320,2013-04-26 19:55:00
10:25 PM,41.0,37.4,87,29.86,6.2,NW,6.9,-,N/A,,Partly Cloudy,320,2013-04-26 20:25:00
10:55 PM,41.0,37.4,87,29.86,-9999.0,NNW,4.6,-,N/A,,Clear,330,2013-04-26 20:55:00
11:00 PM,40,37,83,29.88,13,NW,4.5,,,,Overcast,320,2013-04-26 21:00:00
11:25 PM,39.2,37.4,93,29.86,6.2,NW,3.5,-,N/A,,Partly Cloudy,320,2013-04-26 21:25:00
11:55 PM,39.2,35.6,87,29.86,6.2,NW,5.8,-,N/A,,Partly Cloudy,310,2013-04-26 21:55:00